GW6014 Weather Reports


time (UTC)temp
F
wind
direction
speed
knots
gust
knots
rain 1hr
in
rain 24hr
in
rain mn
in
humidity
%
barometer
mb
20260505051556 68 208 7.8 8.7 0.00 0.00 0.00 62 1005.5
20260505051054 68 198 7.0 9.6 0.00 0.00 0.00 61 1005.4
20260505050552 68 192 6.1 12.2 0.00 0.00 0.00 61 1005.2
20260505041520 69 207 7.0 12.2 0.00 0.06 0.06 60 1004.6
20260505041017 70 218 7.8 11.3 0.00 0.06 0.06 59 1005.0
20260505040514 70 214 9.6 14.8 0.00 0.06 0.06 59 1004.7
20260505040012 69 198 7.8 13.9 0.00 0.06 0.06 59 1004.9
20260505035508 70 219 7.8 11.3 0.00 0.06 0.06 59 1005.1
20260505035005 70 253 8.7 11.3 0.00 0.06 0.06 59 1004.9
20260505034501 70 211 6.1 11.3 0.00 0.06 0.06 59 1005.0
20260505033958 70 238 7.0 11.3 0.00 0.06 0.06 59 1005.1
20260505033455 70 219 9.6 11.3 0.00 0.06 0.06 58 1005.1
20260505032953 70 240 4.3 11.3 0.00 0.06 0.06 59 1005.0
20260505032450 70 229 5.2 9.6 0.00 0.06 0.06 59 1005.1
20260505031946 70 233 3.5 8.7 0.00 0.06 0.06 59 1005.4
20260505031443 70 217 4.3 7.8 0.00 0.06 0.06 59 1005.4
20260505030940 70 213 5.2 7.0 0.00 0.06 0.06 59 1005.3
20260505030436 70 188 5.2 7.0 0.00 0.06 0.06 59 1005.0
20260505025931 70 222 4.3 6.1 0.00 0.06 0.06 59 1005.1
20260505025429 70 221 6.1 12.2 0.00 0.06 0.06 59 1005.2
20260505024928 70 206 7.8 11.3 0.00 0.06 0.06 58 1005.0
20260505024425 70 222 6.1 9.6 0.00 0.06 0.06 59 1004.7
20260505023922 70 191 4.3 7.8 0.00 0.06 0.06 58 1004.7
20260505023419 70 213 4.3 7.8 0.00 0.06 0.06 58 1004.7
20260505022916 70 208 3.5 7.8 0.00 0.06 0.06 58 1004.4
20260505022414 71 246 4.3 7.8 0.00 0.06 0.06 58 1004.5
20260505021910 71 246 8.7 12.2 0.00 0.06 0.06 57 1004.3
20260505021407 71 237 4.3 7.8 0.00 0.06 0.06 57 1004.3
20260505020903 70 204 5.2 9.6 0.00 0.06 0.06 58 1004.2
20260505020358 70 253 3.5 6.1 0.00 0.06 0.06 58 1004.2
20260505015855 70 195 5.2 7.0 0.00 0.06 0.06 58 1004.1
20260505015352 71 288 2.6 6.1 0.00 0.06 0.06 57 1003.8
20260505014850 71 246 4.3 7.8 0.00 0.06 0.06 56 1004.1
20260505014347 72 230 3.5 5.2 0.00 0.06 0.06 55 1003.8
20260505013843 73 227 3.5 7.0 0.00 0.06 0.06 53 1003.9
20260505013340 74 177 5.2 7.8 0.00 0.06 0.06 50 1004.0
20260505012839 74 206 6.1 11.3 0.00 0.06 0.06 50 1004.0
20260505012337 74 218 7.8 9.6 0.00 0.06 0.06 51 1003.9
20260505011832 74 216 8.7 13.9 0.00 0.06 0.06 50 1003.7
20260505011329 74 211 6.1 11.3 0.00 0.06 0.06 49 1003.9
20260505010825 74 191 3.5 13.0 0.00 0.06 0.06 50 1003.7
20260505010321 74 210 7.0 8.7 0.00 0.06 0.06 49 1003.5
20260505005817 74 239 7.0 8.7 0.00 0.06 0.06 49 1003.7
20260505005315 74 242 4.3 6.1 0.00 0.06 0.06 49 1003.5
20260505004812 74 196 3.5 7.0 0.00 0.06 0.06 49 1003.4
20260505004308 75 250 5.2 7.8 0.00 0.06 0.06 48 1003.4
20260505003806 75 261 6.1 7.8 0.00 0.06 0.06 47 1003.5
20260505003303 76 173 4.3 12.2 0.00 0.06 0.06 47 1003.4
20260505002759 76 152 7.0 9.6 0.00 0.06 0.06 47 1003.4
20260505002256 76 201 5.2 8.7 0.00 0.06 0.06 47 1003.5
20260505001754 76 259 7.0 14.8 0.00 0.06 0.06 46 1003.3
20260505001251 76 223 8.7 13.9 0.00 0.06 0.06 46 1003.2
20260505000748 76 213 12.2 13.9 0.00 0.06 0.06 47 1003.1
20260505000246 75 199 8.7 11.3 0.00 0.06 0.06 49 1003.1
20260504235742 75 230 4.3 7.8 0.00 0.06 0.06 51 1003.2
20260504235238 75 221 3.5 7.0 0.00 0.06 0.06 51 1003.2
20260504234736 75 215 4.3 6.1 0.00 0.06 0.06 51 1003.3
20260504234233 75 186 2.6 5.2 0.00 0.06 0.06 52 1003.2
20260504233729 74 242 2.6 6.1 0.00 0.06 0.06 52 1003.3
20260504233225 74 224 4.3 7.0 0.00 0.06 0.06 52 1003.2
20260504232723 74 240 1.7 5.2 0.00 0.06 0.06 54 1003.2
20260504232219 74 239 5.2 6.1 0.00 0.06 0.06 54 1003.4
20260504231716 73 231 1.7 3.5 0.00 0.06 0.06 56 1003.4
20260504231213 74 234 1.7 2.6 0.00 0.06 0.06 55 1003.6
20260504230709 74 230 1.7 5.2 0.00 0.06 0.06 53 1003.6
20260504230208 75 251 2.6 6.1 0.00 0.06 0.06 52 1003.8
20260504225706 75 211 5.2 9.6 0.00 0.06 0.06 51 1003.8
20260504225201 75 196 5.2 7.0 0.00 0.06 0.06 51 1003.8
20260504224659 76 269 2.6 6.1 0.00 0.06 0.06 53 1004.0
20260504224156 75 238 4.3 7.8 0.00 0.06 0.06 54 1004.0
20260504223653 75 225 4.3 9.6 0.00 0.06 0.06 54 1004.2
20260504223148 75 221 5.2 8.7 0.00 0.06 0.06 55 1004.0
20260504222645 76 188 3.5 6.1 0.00 0.06 0.06 54 1004.1
20260504222142 77 196 2.6 7.0 0.00 0.06 0.06 54 1004.1
20260504221640 77 246 5.2 8.7 0.00 0.06 0.06 53 1004.1
20260504221136 76 115 1.7 7.8 0.00 0.06 0.06 53 1004.1
20260504220633 76 235 3.5 7.0 0.00 0.06 0.06 54 1004.3
20260504220131 76 260 5.2 7.8 0.00 0.06 0.06 53 1004.2
20260504215626 76 230 2.6 3.5 0.00 0.06 0.06 55 1004.2
20260504215124 76 233 3.5 6.1 0.00 0.06 0.06 54 1004.3
20260504214620 75 187 2.6 7.0 0.00 0.06 0.06 55 1004.4
20260504214116 75 231 3.5 7.8 0.00 0.06 0.06 55 1004.3
20260504213613 75 234 5.2 8.7 0.00 0.06 0.06 54 1004.6
20260504213110 74 235 3.5 7.8 0.00 0.06 0.06 57 1004.6
20260504212606 74 245 5.2 9.6 0.00 0.06 0.06 56 1004.7
20260504212103 74 77 3.5 13.0 0.00 0.06 0.06 58 1004.5
20260504211600 73 202 4.3 8.7 0.00 0.06 0.06 61 1004.7
20260504211057 73 234 4.3 7.0 0.00 0.06 0.06 60 1004.8
20260504210554 72 245 3.5 7.0 0.00 0.06 0.06 63 1004.8
20260504210050 72 251 2.6 7.8 0.00 0.06 0.06 63 1004.9
20260504205548 71 194 0.9 3.5 0.00 0.06 0.06 64 1004.9
20260504205046 71 252 3.5 7.0 0.00 0.06 0.06 64 1005.0
20260504204544 73 243 1.7 7.8 0.00 0.06 0.06 63 1004.9
20260504204043 72 191 4.3 7.8 0.00 0.06 0.06 63 1005.1
20260504203540 72 255 2.6 5.2 0.00 0.06 0.06 68 1005.3
20260504203038 73 202 2.6 5.2 0.00 0.06 0.06 64 1005.2
20260504202533 73 79 1.7 5.2 0.00 0.06 0.06 63 1005.3
20260504202030 73 130 2.6 3.5 0.00 0.06 0.06 62 1005.3
20260504201527 70 180 1.7 1.7 0.00 0.06 0.06 68 1005.2
20260504201025 69 291 1.7 6.1 0.00 0.06 0.06 68 1005.6
20260504200521 68 202 1.7 2.6 0.00 0.06 0.06 70 1005.5
20260504200018 67 212 2.6 6.1 0.00 0.06 0.06 72 1005.2
20260504195514 67 282 0.9 6.1 0.00 0.06 0.06 69 1004.9
20260504195011 67 181 2.6 5.2 0.00 0.06 0.06 67 1004.7
20260504194507 67 75 4.3 7.0 0.00 0.06 0.06 70 1004.5
20260504194002 65 54 3.5 6.1 0.05 0.06 0.06 71 1005.0
20260504193500 63 188 1.7 6.1 0.05 0.06 0.06 73 1005.3
20260504192959 62 223 0.9 1.7 0.00 0.05 0.05 86 1006.8
20260504192456 63 221 1.7 1.7 0.00 0.05 0.05 84 1007.0
20260504191955 63 302 0.0 1.7 0.07 0.05 0.05 80 1006.7
20260504191452 63 180 0.9 0.9 0.12 0.04 0.04 80 1006.6
20260504190947 63 330 0.9 1.7 0.12 0.04 0.04 80 1006.7
20260504190443 63 288 0.9 3.5 0.07 0.02 0.02 81 1007.0
20260504185940 63 10 0.0 0.0 0.12 0.02 0.02 81 1007.6
20260504185437 64 66 0.0 0.0 0.05 0.01 0.01 77 1007.5
20260504184933 66 15 0.9 0.9 0.00 0.00 0.00 72 1007.6
20260504184429 66 5 0.0 0.9 0.00 0.00 0.00 67 1007.5
20260504183925 67 244 0.9 2.6 0.00 0.00 0.00 65 1007.6
20260504183422 67 237 1.7 2.6 0.00 0.00 0.00 65 1008.1
20260504182920 67 253 0.9 1.7 0.00 0.00 0.00 66 1007.9
20260504182417 67 29 0.0 1.7 0.00 0.00 0.00 66 1008.1
20260504181914 67 262 1.7 2.6 0.00 0.00 0.00 66 1007.6
20260504181411 67 245 1.7 3.5 0.00 0.00 0.00 65 1007.2
20260504180910 67 263 1.7 3.5 0.00 0.00 0.00 64 1007.1
20260504180408 67 181 3.5 6.1 0.00 0.00 0.00 65 1007.1
20260504175906 67 210 2.6 3.5 0.00 0.00 0.00 65 1007.0
20260504175403 67 205 3.5 7.0 0.00 0.00 0.00 65 1006.9
20260504174900 67 222 4.3 6.1 0.00 0.00 0.00 67 1006.9
20260504174358 67 164 3.5 7.0 0.00 0.00 0.00 66 1006.7
20260504173855 67 243 3.5 6.1 0.00 0.00 0.00 66 1006.5
20260504173351 67 212 2.6 5.2 0.00 0.00 0.00 66 1006.7
20260504172849 68 176 1.7 5.2 0.00 0.00 0.00 66 1006.7
20260504172345 68 222 1.7 7.0 0.00 0.00 0.00 65 1007.0
20260504171841 70 229 8.7 9.6 0.00 0.00 0.00 62 1007.3
20260504171338 68 276 1.7 7.0 0.00 0.00 0.00 65 1006.2
20260504170835 67 221 3.5 7.8 0.00 0.00 0.00 66 1007.1
20260504170332 67 256 6.1 7.8 0.00 0.00 0.00 69 1007.0
20260504160250 68 206 5.2 13.0 0.00 0.00 0.00 57 1008.5
20260504150716 71 245 5.2 11.3 0.00 0.00 0.00 51 1008.6
20260504150213 70 282 5.2 9.6 0.00 0.00 0.00 53 1008.4
20260504141142 68 204 4.3 6.1 0.00 0.00 0.00 61 1008.7
20260504140639 68 231 7.8 9.6 0.00 0.00 0.00 61 1008.6
20260504140134 67 252 6.1 7.8 0.00 0.00 0.00 63 1008.8
20260504130602 62 227 6.1 11.3 0.00 0.00 0.00 72 1009.1
20260504110450 58 217 0.0 1.7 0.00 0.00 0.00 77 1009.5
20260504100412 58 350 0.9 2.6 0.00 0.00 0.00 76 1009.1
20260504081806 59 338 0.0 1.7 0.00 0.00 0.00 79 1009.7
20260504081302 58 44 0.9 2.6 0.00 0.00 0.00 80 1009.5
20260504080758 58 326 0.9 1.7 0.00 0.00 0.00 82 1009.9
20260504080255 58 130 0.9 1.7 0.00 0.00 0.00 82 1009.8
20260504070223 58 32 0.9 0.9 0.00 0.00 0.00 80 1010.4
20260504060143 62 63 7.0 12.2 0.00 0.00 0.00 62 1011.4